Weather History for Boonville, MO

Change the Weather History Date:

Friday, January 17, 2014

  Actual Average Record
Temperature  
Mean Temperature 22 °F -  
Max Temperature 28 °F 38 °F 69 °F (1952)
Min Temperature 15 °F 19 °F -8 °F (1982)
Degree Days  
Heating Degree Days 44    
Moisture  
Dew Point 8 °F    
Average Humidity 58    
Maximum Humidity 78    
Minimum Humidity 42    
Precipitation  
Precipitation 0.00 in - - ()
Sea Level Pressure  
Sea Level Pressure 30.07 in    
Wind  
Wind Speed 12 mph (WNW)    
Max Wind Speed 22 mph    
Max Gust Speed 32 mph    
Visibility 10 miles    
Events Snow    
Averages and records for this station are not official NWS values.
T = Trace of Precipitation, MM = Missing Value Source: NWS Daily Summary

Daily Weather History Graph

Daily Weather History Graph

Search for Another Location

Airport:

Trip Planner

Search our weather history database for the weather conditions in past years. The results will help you decide how hot, cold, wet, or windy it might be!

Date:

Astronomy

Jan. 17, 2014 Rise Set
Actual Time 7:27 AM CST 5:14 PM CST
Civil Twilight 6:58 AM CST 5:44 PM CST
Nautical Twilight 6:25 AM CST 6:16 PM CST
Astronomical Twilight 5:53 AM CST 6:48 PM CST
Moon 7:00 PM CST (1/17) 7:56 AM CST (1/17)
Length of Visible Light 10h 46m
Length of Day
9h 47m
Full, 98% of the Moon is Illuminated
Jan 17
Full
Jan 23
Last Quarter
Jan 30
New
Feb 6
First Quarter
Feb 14
Full

Hourly Weather History & Observations

Time (CST) Temp. Windchill Dew Point Humidity Pressure Visibility Wind Dir Wind Speed Gust Speed Precip Events Conditions
12:15 AM 18.5 °F 5.5 °F 3.9 °F 53% 30.00 in 10.0 mi WNW 12.7 mph 28.8 mph N/A   Mostly Cloudy
12:35 AM 17.8 °F 0.7 °F 6.8 °F 62% 30.00 in 2.5 mi NW 21.9 mph 32.2 mph N/A Snow Light Snow
12:55 AM 16.7 °F 0.5 °F 8.8 °F 71% 30.01 in 10.0 mi NW 18.4 mph 28.8 mph N/A   Overcast
1:15 AM 16.3 °F 2.1 °F 6.4 °F 65% 30.01 in 10.0 mi NW 13.8 mph 21.9 mph N/A   Overcast
1:35 AM 15.8 °F 3.4 °F 7.7 °F 70% 30.01 in 4.0 mi WNW 10.4 mph 20.7 mph N/A Snow Light Snow
1:55 AM 16.0 °F 2.3 °F 8.1 °F 71% 30.01 in 10.0 mi WNW 12.7 mph - N/A   Overcast
2:15 AM 16.5 °F 4.3 °F 8.4 °F 70% 30.02 in 4.0 mi WNW 10.4 mph 16.1 mph N/A Snow Light Snow
2:35 AM 16.2 °F 1.3 °F 10.2 °F 77% 30.02 in 2.0 mi WNW 15.0 mph 23.0 mph N/A Snow Light Snow
2:55 AM 15.8 °F 2.7 °F 10.0 °F 78% 30.02 in 10.0 mi WNW 11.5 mph 16.1 mph N/A   Overcast
3:15 AM 16.0 °F 1.7 °F 9.3 °F 75% 30.02 in 10.0 mi WNW 13.8 mph 18.4 mph N/A   Overcast
3:35 AM 16.5 °F 3.0 °F 7.5 °F 68% 30.01 in 10.0 mi WNW 12.7 mph 19.6 mph N/A   Overcast
3:55 AM 16.7 °F 4.5 °F 8.2 °F 69% 30.01 in 10.0 mi WNW 10.4 mph 18.4 mph N/A Snow Light Snow
4:15 AM 17.1 °F 5.0 °F 9.5 °F 72% 30.01 in 10.0 mi WNW 10.4 mph 16.1 mph N/A   Overcast
4:35 AM 17.2 °F 3.9 °F 9.3 °F 71% 30.01 in 10.0 mi WNW 12.7 mph 18.4 mph N/A   Overcast
4:55 AM 17.6 °F 5.7 °F 9.3 °F 70% 30.01 in 10.0 mi WNW 10.4 mph 19.6 mph N/A   Overcast
5:15 AM 17.8 °F 5.2 °F 9.5 °F 70% 30.01 in 10.0 mi WNW 11.5 mph 19.6 mph N/A   Overcast
5:35 AM 18.1 °F 4.4 °F 10.0 °F 71% 30.01 in 4.0 mi WNW 13.8 mph 24.2 mph N/A Snow Light Snow
5:55 AM 18.0 °F 3.6 °F 8.2 °F 66% 30.01 in 10.0 mi WNW 15.0 mph 26.5 mph N/A   Overcast
6:15 AM 17.6 °F 4.3 °F 7.5 °F 65% 30.02 in 10.0 mi WNW 12.7 mph 19.6 mph N/A   Overcast
6:35 AM 17.6 °F 3.7 °F 7.7 °F 65% 30.03 in 10.0 mi WNW 13.8 mph 20.7 mph N/A   Overcast
6:55 AM 17.4 °F 7.1 °F 6.6 °F 63% 30.03 in 10.0 mi NW 8.1 mph 19.6 mph N/A   Overcast
7:15 AM 17.2 °F 4.5 °F 5.5 °F 60% 30.04 in 10.0 mi NW 11.5 mph 24.2 mph N/A   Overcast
7:35 AM 17.1 °F 5.8 °F 6.1 °F 62% 30.05 in 10.0 mi WNW 9.2 mph 18.4 mph N/A   Overcast
7:55 AM 17.1 °F 3.6 °F 6.1 °F 62% 30.05 in 10.0 mi WNW 12.7 mph 20.7 mph N/A   Overcast
8:15 AM 17.1 °F 3.6 °F 5.2 °F 60% 30.06 in 10.0 mi WNW 12.7 mph 23.0 mph N/A   Overcast
8:35 AM 16.7 °F 2.6 °F 5.0 °F 60% 30.07 in 10.0 mi NW 13.8 mph - N/A   Overcast
8:55 AM 16.7 °F 2.0 °F 5.2 °F 61% 30.08 in 10.0 mi WNW 15.0 mph 21.9 mph N/A   Overcast
9:15 AM 17.1 °F 5.8 °F 5.0 °F 59% 30.08 in 10.0 mi WNW 9.2 mph 19.6 mph N/A   Overcast
9:35 AM 17.6 °F 5.0 °F 5.4 °F 59% 30.09 in 10.0 mi NW 11.5 mph 17.3 mph N/A   Overcast
9:55 AM 17.8 °F 4.6 °F 5.2 °F 58% 30.09 in 10.0 mi WNW 12.7 mph 20.7 mph N/A   Overcast
10:15 AM 18.0 °F 3.6 °F 4.6 °F 56% 30.10 in 10.0 mi NW 15.0 mph 21.9 mph N/A   Overcast
10:35 AM 19.2 °F 5.8 °F 5.0 °F 54% 30.11 in 10.0 mi WNW 13.8 mph 24.2 mph N/A   Mostly Cloudy
10:55 AM 19.8 °F 5.9 °F 5.0 °F 53% 30.11 in 10.0 mi NW 15.0 mph 23.0 mph N/A   Mostly Cloudy
11:15 AM 20.1 °F 6.4 °F 5.4 °F 53% 30.11 in 10.0 mi WNW 15.0 mph 18.4 mph N/A   Mostly Cloudy
11:35 AM 20.8 °F 6.8 °F 5.4 °F 51% 30.11 in 10.0 mi NW 16.1 mph 20.7 mph N/A   Mostly Cloudy
11:55 AM 21.4 °F 8.5 °F 5.4 °F 50% 30.10 in 10.0 mi NW 13.8 mph 21.9 mph N/A   Scattered Clouds
12:15 PM 21.7 °F 8.5 °F 5.5 °F 50% 30.10 in 10.0 mi WNW 15.0 mph 20.7 mph N/A   Scattered Clouds
12:35 PM 22.3 °F 9.7 °F 5.7 °F 49% 30.09 in 10.0 mi WNW 13.8 mph 23.0 mph N/A   Scattered Clouds
12:55 PM 23.4 °F 11.6 °F 6.6 °F 49% 30.09 in 10.0 mi West 12.7 mph 24.2 mph N/A   Clear
1:15 PM 24.4 °F 11.5 °F 6.8 °F 47% 30.09 in 10.0 mi WNW 16.1 mph 21.9 mph N/A   Clear
1:35 PM 25.2 °F 13.9 °F 7.0 °F 46% 30.08 in 10.0 mi West 12.7 mph 23.0 mph N/A   Clear
1:55 PM 25.7 °F 12.7 °F 7.0 °F 45% 30.09 in 10.0 mi WNW 17.3 mph 23.0 mph N/A   Clear
2:15 PM 26.2 °F 15.2 °F 7.2 °F 44% 30.09 in 10.0 mi WNW 12.7 mph 21.9 mph N/A   Clear
2:35 PM 26.6 °F 16.2 °F 7.5 °F 45% 30.09 in 10.0 mi West 11.5 mph 20.7 mph N/A   Clear
2:55 PM 27.5 °F 19.3 °F 7.9 °F 44% 30.10 in 10.0 mi West 8.1 mph 18.4 mph N/A   Clear
3:15 PM 27.9 °F 16.3 °F 8.1 °F 43% 30.10 in 10.0 mi West 15.0 mph 20.7 mph N/A   Clear
3:35 PM 28.0 °F 17.5 °F 7.9 °F 43% 30.11 in 10.0 mi WNW 12.7 mph 21.9 mph N/A   Clear
3:55 PM 28.4 °F 19.7 °F 7.9 °F 42% 30.11 in 10.0 mi West 9.2 mph 17.3 mph N/A   Clear
4:15 PM 28.4 °F 20.4 °F 7.9 °F 42% 30.11 in 10.0 mi WNW 8.1 mph 19.6 mph N/A   Clear
4:35 PM 28.4 °F 19.1 °F 8.1 °F 42% 30.11 in 10.0 mi West 10.4 mph 18.4 mph N/A   Clear
4:55 PM 28.0 °F 20.8 °F 8.6 °F 44% 30.11 in 10.0 mi WNW 6.9 mph - N/A   Clear
5:15 PM 27.3 °F 19.1 °F 8.8 °F 46% 30.11 in 10.0 mi WNW 8.1 mph - N/A   Clear
5:35 PM 26.8 °F 21.4 °F 8.8 °F 47% 30.11 in 10.0 mi West 4.6 mph - N/A   Clear
5:55 PM 26.4 °F 20.9 °F 9.1 °F 48% 30.12 in 10.0 mi West 4.6 mph - N/A   Clear
6:15 PM 26.1 °F 20.5 °F 9.3 °F 49% 30.12 in 10.0 mi West 4.6 mph - N/A   Clear
6:35 PM 25.7 °F 20.1 °F 9.0 °F 49% 30.12 in 10.0 mi West 4.6 mph - N/A   Clear
6:55 PM 25.7 °F 21.5 °F 8.8 °F 49% 30.11 in 10.0 mi West 3.5 mph - N/A   Clear
7:15 PM 25.2 °F 20.9 °F 8.8 °F 50% 30.11 in 10.0 mi West 3.5 mph - N/A   Clear
7:35 PM 24.6 °F 18.8 °F 8.6 °F 51% 30.11 in 10.0 mi West 4.6 mph - N/A   Clear
7:55 PM 24.1 °F 19.7 °F 8.6 °F 52% 30.11 in 10.0 mi WNW 3.5 mph - N/A   Clear
8:15 PM 23.9 °F - 8.6 °F 52% 30.11 in 10.0 mi Calm Calm - N/A   Clear
8:35 PM 23.7 °F - 8.8 °F 53% 30.11 in 10.0 mi Calm Calm - N/A   Clear
8:55 PM 23.2 °F - 8.8 °F 54% 30.11 in 10.0 mi Calm Calm - N/A   Clear
9:15 PM 22.5 °F - 9.3 °F 57% 30.11 in 10.0 mi Calm Calm - N/A   Clear
9:35 PM 20.5 °F - 10.0 °F 64% 30.11 in 10.0 mi Calm Calm - N/A   Clear
9:55 PM 19.6 °F - 9.3 °F 64% 30.11 in 10.0 mi Calm Calm - N/A   Clear
10:15 PM 19.0 °F - 9.3 °F 66% 30.10 in 10.0 mi Calm Calm - N/A   Clear
10:35 PM 18.1 °F - 10.2 °F 71% 30.09 in 10.0 mi Calm Calm - N/A   Clear
10:55 PM 18.3 °F 11.5 °F 10.9 °F 73% 30.08 in 10.0 mi South 4.6 mph - N/A   Clear
11:15 PM 18.3 °F 13.1 °F 11.1 °F 73% 30.07 in 10.0 mi South 3.5 mph - N/A   Clear
11:35 PM 18.5 °F 13.3 °F 11.3 °F 73% 30.06 in 10.0 mi South 3.5 mph - N/A   Scattered Clouds
11:55 PM 19.0 °F 10.0 °F 10.9 °F 71% 30.05 in 10.0 mi SSE 6.9 mph - N/A   Mostly Cloudy